Regional Weather Roundup
Issued by NWS Sterling, VA

Home | Current Version | Previous Version | Text Only | Print | Product List | Glossary On
Versions: 1 2 3 4 5 6 7 8 9 10 11 12 13 14 15 16 17 18 19 20 21 22 23 24 25 26 27 28 29 30 31 32 33 34 35 36 37 38 39 40 41 42 43 44 45 46 47 48 49 50
000
ASUS41 KLWX 211010
RWRLWX

REGIONAL WEATHER ROUNDUP
NATIONAL WEATHER SERVICE BALTIMORE MD/WASHINGTON DC
500 AM EST SUN DEC 21 2014

Note: "FAIR" indicates few or no clouds below 12,000 feet
with no significant weather and/or obstructions to visibility.
 TC=TEMPERATURE CELSIUS

 * =Non NWS site. Station does not report precipitation (e.g. rain,
    snow, etc.), thunder, or fog.

DCZ001-MDZ009-015-VAZ040>042-051-053>054-211100-
WASHINGTON METRO

CITY           SKY/WX    TMP DP  RH WIND       PRES   REMARKS
WASHINGTON NAT CLOUDY    37  24  59 NE3       30.32S
DULLES         CLOUDY    32  23  69 N5        30.30S
ANDREWS AFB    CLOUDY    32  26  78 N3        30.29S
FT BELVOIR     CLOUDY    32  27  81 NW1       30.31F
QUANTICO       CLOUDY    33  26  75 NW3       30.33R
COLLEGE PARK*  CLOUDY    34  28  80 CALM      30.31R
LEESBURG*      CLOUDY    32  28  86 N3        30.31S
MANASSAS*      CLOUDY    32  30  93 CALM      30.31S
GAITHERSBURG*  CLOUDY    30  21  69 N3        30.33R

$$

MDZ006>007-011-014-211100-
BALTIMORE METRO

CITY           SKY/WX    TMP DP  RH WIND       PRES   REMARKS
BWI AIRPORT    CLOUDY    32  24  72 NW3       30.30S
MD SCIENCE CTR   N/A     34  23  64 MISG      30.30F
MARTIN STATE   CLOUDY    32  28  86 NW3       30.33R
ANNAPOLIS      CLOUDY    34  27  75 CALM      30.30S
FORT MEADE*    CLOUDY    32  28  86 CALM      30.33R

$$

MDZ012-015-019>023-211100-
MARYLAND EASTERN SHORE

CITY           SKY/WX    TMP DP  RH WIND       PRES   REMARKS
OCEAN CITY     CLOUDY    31  26  82 CALM      30.30S
SALISBURY      CLOUDY    32  27  81 CALM      30.30S
BAY BRIDGE AP*   N/A     34  28  80 CALM      30.31S
CAMBRIDGE*     CLOUDY    32  28  86 CALM      30.29F
EASTON*        CLOUDY    32  32  99 CALM      30.33S

$$

MDZ017>025-211100-
SOUTHERN MARYLAND

CITY           SKY/WX    TMP DP  RH WIND       PRES   REMARKS
PATUXENT RIVER CLOUDY    34  26  72 W3        30.30S
ST INIGOES     CLOUDY    35  24  64 NW3       30.30S
LEONARDTOWN*   CLOUDY    32  27  80 CALM      30.31S

$$

MDZ003>005-211100-
NORTH CENTRAL MARYLAND

CITY           SKY/WX    TMP DP  RH WIND       PRES   REMARKS
FREDERICK*     CLOUDY    32  25  74 CALM      30.33S
HAGERSTOWN APT CLOUDY    29  22  75 CALM      30.28F
WESTMINSTER*   CLOUDY    28  23  80 CALM      30.27S

$$

MDZ501>502-211100-
WESTERN MARYLAND

CITY           SKY/WX    TMP DP  RH WIND       PRES   REMARKS
OAKLAND*       CLOUDY    23 N/A N/A W3        30.16S
CUMBERLAND*    CLOUDY    32  28  86 CALM      30.31S

$$

VAZ025>031-211100-
SHENANDOAH VALLEY

CITY           SKY/WX    TMP DP  RH WIND       PRES   REMARKS
WINCHESTER*    CLOUDY    32  21  64 CALM      30.28S
FRONT ROYAL*   CLOUDY    32  25  74 CALM      30.27F
LURAY*         CLOUDY    32  28  86 E3        30.26S
NEW MARKET*    CLOUDY    31  25  79 CALM      30.26S
STAUNTON*      CLOUDY    32  27  79 CALM      30.26S
WAYNESBORO*    CLOUDY    31  25  79 CALM      30.23S

$$

WVZ021-048>050-054>055-211100-
EASTERN WEST VIRGINIA PANHANDLE

CITY           SKY/WX    TMP DP  RH WIND       PRES   REMARKS
MARTINSBURG    CLOUDY    31  21  66 CALM      30.29S
PETERSBURG*    CLOUDY    32  27  81 CALM      30.27S

$$

VAZ036>039-050-211100-
CENTRAL FOOTHILLS

CITY           SKY/WX    TMP DP  RH WIND       PRES   REMARKS
CHARLOTTESVILL CLOUDY    32  25  75 CALM      30.27S
CULPEPER*      CLOUDY    34  30  86 CALM      30.30R
ORANGE*        CLOUDY    32  30  93 CALM      30.30S
GORDONSVILLE*  CLOUDY    32  28  86 CALM      30.28S
WARRENTON*     CLOUDY    33  32  95 CALM      30.30R

$$

VAZ055>057-211100-
NORTH AND CENTRAL PIEDMONT

CITY           SKY/WX    TMP DP  RH WIND       PRES   REMARKS
FREDERICKSBRG* CLOUDY    34  29  82 CALM      30.30S
STAFFORD*      CLOUDY    32  28  84 CALM      30.35R

$$

NCZ024-NYZ072-PAZ021-071-VAZ022-071-211100-
OTHER REGIONAL OBSERVATIONS

CITY           SKY/WX    TMP DP  RH WIND       PRES   REMARKS
NEW YORK CITY  CLOUDY    31  23  72 N3        30.29F
PHILADELPHIA   CLOUDY    32  22  66 NW6       30.31S
PITTSBURGH     CLOUDY    27  22  81 W3        30.27S
ROANOKE        CLOUDY    35  27  72 CALM      30.25S
RICHMOND       CLOUDY    36  25  64 CALM      30.29F
RALEIGH        CLOUDY    38  34  85 NE3       30.26F FOG

$$

ANZ530>537-211100-
MARINE OBSERVATIONS

STATION/POSITION TIME  TEMP    WIND        PRES
                       AIR SEA DIR/SP/G
                 (UTC) (F)     (DEG/KT/KT) (MB)
THOMAS PT LIGHT  1000   35 41  330/  5/  6 1027.2S
BALT KEY BRIDGE  1000   34     340/  5/  6 1026.1R
COVE POINT       1000   34     320/  3/  4 1025.7S
LEWISETTA        1000   35 41  300/  3/  4 1025.8R
SOLOMONS ISLAND  1000      42                N/A

$$




USA.gov is the U.S. government's official web portal to all federal, state and local government web resources and services.